Yakima, WA

4:53 AM PDT on June 20, 2018 (GMT -0700)
Yakima Air Term-McAllister

Weather History for KYKM - November, 2017

Change the Weather History Date:

Thursday, November 16, 2017

  Actual Average Record
Temperature  
Mean Temperature 42 °F 37 °F  
Max Temperature 53 °F 48 °F 63 °F (1949)
Min Temperature 30 °F 27 °F 8 °F (2014)
Degree Days  
Heating Degree Days 23 28  
Month to date heating degree days 374 400  
Since 1 July heating degree days 935 1104  
Cooling Degree Days 0 0  
Month to date cooling degree days 0 0  
Year to date cooling degree days 1054 472  
Moisture  
Dew Point 34 °F    
Average Humidity 73    
Maximum Humidity 96    
Minimum Humidity 50    
Precipitation  
Precipitation 0.00 in 0.04 in 0.30 in (1981)
Month to date precipitation 0.73 0.51  
Year to date precipitation 9.47 6.18  
Snow  
Snow 0.00 in 0.10 in 1.70 in (2011)
Month to date snowfall 0.4 0.9  
Year to date snowfall 29.5 9.6  
Since 1 July snowfall 0.4 1.0  
Snow Depth 0.00 in    
Sea Level Pressure  
Sea Level Pressure 29.63 in    
Wind  
Wind Speed 8 mph (SSW)    
Max Wind Speed 23 mph    
Max Gust Speed 29 mph    
Visibility 10 miles    
Events      
T = Trace of Precipitation, MM = Missing Value Source: NWS Daily Summary

Daily Weather History Graph

Daily Weather History Graph

Search for Another Location

Airport or City:

Astronomy

Nov. 16, 2017 Rise Set
Actual Time 7:06 AM PST 4:27 PM PST
Civil Twilight 6:33 AM PST 5:00 PM PST
Nautical Twilight 5:56 AM PST 5:37 PM PST
Astronomical Twilight 5:20 AM PST 6:12 PM PST
Moon 5:00 AM PST (11/16) 4:05 PM PST (11/16)
Length of Visible Light 10h 27m
Length of Day
9h 21m
Waning Crescent, 3% of the Moon is Illuminated
Nov 16
Waning Crescent
Nov 18
New
Nov 26
First Quarter
Dec 3
Full
Dec 9
Last Quarter

Hourly Weather History & Observations

Time (PST) Temp. Windchill Dew Point Humidity Pressure Visibility Wind Dir Wind Speed Gust Speed Precip Events Conditions
12:53 AM 43.0 °F 39.5 °F 37.9 °F 82% 29.55 in 10.0 mi ENE 5.8 mph - 0.00 in   Overcast
1:53 AM 44.1 °F 38.6 °F 37.9 °F 79% 29.55 in 10.0 mi ESE 10.4 mph - N/A   Clear
2:53 AM 41.0 °F 36.4 °F 36.0 °F 82% 29.56 in 10.0 mi East 6.9 mph - N/A   Clear
3:53 AM 42.1 °F 38.4 °F 35.1 °F 76% 29.58 in 10.0 mi SE 5.8 mph - N/A   Clear
4:53 AM 42.1 °F 39.2 °F 34.0 °F 73% 29.59 in 10.0 mi Variable 4.6 mph - N/A   Scattered Clouds
5:53 AM 34.0 °F 28.8 °F 32.0 °F 92% 29.61 in 10.0 mi West 5.8 mph - N/A   Clear
6:53 AM 30.9 °F 25.2 °F 28.9 °F 92% 29.63 in 10.0 mi West 5.8 mph - N/A   Clear
7:53 AM 33.1 °F 28.7 °F 30.0 °F 89% 29.65 in 10.0 mi WNW 4.6 mph - N/A   Clear
8:53 AM 37.9 °F 34.4 °F 34.0 °F 86% 29.66 in 10.0 mi SSW 4.6 mph - N/A   Clear
9:53 AM 42.1 °F - 36.0 °F 79% 29.66 in 10.0 mi Calm Calm - N/A   Clear
10:53 AM 48.0 °F - 37.0 °F 66% 29.65 in 10.0 mi Variable 3.5 mph - N/A   Clear
11:53 AM 51.1 °F - 36.0 °F 56% 29.63 in 10.0 mi South 19.6 mph 25.3 mph N/A   Clear
12:53 PM 52.0 °F - 36.0 °F 54% 29.62 in 10.0 mi South 19.6 mph 25.3 mph N/A   Clear
1:53 PM 52.0 °F - 35.1 °F 53% 29.62 in 10.0 mi SSW 19.6 mph 28.8 mph N/A   Scattered Clouds
2:53 PM 51.1 °F - 34.0 °F 52% 29.62 in 10.0 mi SSW 13.8 mph 24.2 mph N/A   Mostly Cloudy
3:53 PM 48.9 °F - 33.1 °F 54% 29.62 in 10.0 mi SSW 13.8 mph - N/A   Mostly Cloudy
4:53 PM 48.0 °F - 33.1 °F 56% 29.63 in 10.0 mi SSW 15.0 mph 25.3 mph N/A   Mostly Cloudy
5:53 PM 46.9 °F - 33.1 °F 59% 29.64 in 10.0 mi South 15.0 mph 20.7 mph N/A   Mostly Cloudy
6:53 PM 46.0 °F 40.2 °F 34.0 °F 63% 29.64 in 10.0 mi SSW 12.7 mph 26.5 mph N/A   Scattered Clouds
7:53 PM 45.0 °F 43.5 °F 34.0 °F 65% 29.66 in 10.0 mi NNE 3.5 mph - N/A   Scattered Clouds
8:53 PM 41.0 °F 39.0 °F 33.1 °F 73% 29.67 in 10.0 mi NNW 3.5 mph - N/A   Clear
9:53 PM 39.0 °F 36.8 °F 33.1 °F 79% 29.68 in 10.0 mi North 3.5 mph - N/A   Partly Cloudy
10:53 PM 36.0 °F - 30.9 °F 82% 29.70 in 10.0 mi Calm Calm - N/A   Scattered Clouds
11:53 PM 33.1 °F 27.7 °F 28.9 °F 85% 29.72 in 10.0 mi West 5.8 mph - N/A   Clear